User: anonymous   Login
Location: Baix
(44.7118°N, 4.7648°E)
Time: 11:40:20
(UTC+00:00)
Language:

Meteor 1-22 Rocket - Orbit

View from above orbital plane
View from above orbital plane
View from above satellite
View from above satellite

Ground track
Ground track

The orbit data is extracted from the following two-line orbital elements,

1  8294U 75087B   20304.90361664 -.00000090 +00000-0 -56895-4 0  9992
2  8294 081.2151 262.0179 0107278 167.2581 193.1341 14.08655069318003
Epoch (UTC): 30 October 2020 21:41:12
Eccentricity: 0.0107278
inclination: 81.2151°
perigee height: 786 km
apogee height: 941 km
right ascension of ascending node: 262.0179°
argument of perigee: 167.2581°
revolutions per day: 14.08655069
mean anomaly at epoch: 193.1341°
orbit number at epoch: 31800

The dashed part of the orbit path shows where the satellite is in the earth's shadow,  

DLR